1497650401.14,3886,17.5,73504.8,-0.25,-1.47,-1.59,0,*5D
1497650402.38,3887,17.5,73508.3,-0.25,-1.43,-1.47,0,*57
1497650403.57,3888,17.5,73514.0,-0.25,-1.33,-1.33,0,*5C
1497650404.78,3889,17.5,73514.3,-0.25,-1.43,-1.55,0,*5A
1497650405.97,3890,17.5,73516.3,-0.25,-1.59,-1.67,0,*58
1497650407.2,3891,17.5,73516.5,-0.27,-1.39,-1.51,0,*58
1497650408.47,3892,17.5,73516.5,-0.27,-1.39,-1.47,0,*5C
1497650409.67,3893,17.5,73516.0,-0.27,-1.51,-1.59,0,*5C
1497650410.9,3894,17.5,73518.5,-0.27,-1.47,-1.59,0,*5C
1497650412.13,3895,17.5,73518.0,-0.27,-1.47,-1.59,0,*5D
1497650413.36,3896,17.5,73522.3,-0.27,-1.39,-1.59,0,*57
1497650414.54,3897,17.5,73518.8,-0.29,-1.59,-1.63,0,*57
1497650415.78,3898,17.5,73534.3,-0.27,-1.39,-1.51,0,*51
1497650417.02,3899,17.5,73522.8,-0.29,-1.47,-1.47,0,*50
1497650418.23,3900,17.5,73506.8,-0.27,-1.51,-1.63,0,*5E
1497650419.43,3901,17.5,73498.0,-0.27,-2.15,-2.27,0,*5F
1497650420.61,3902,17.5,73504.5,-0.29,-2.23,-2.35,0,*54
1497650421.8,3903,17.5,73512.0,-0.29,-2.15,-2.35,0,*50
1497650423.05,3904,17.5,73506.3,-0.31,-1.87,-1.95,0,*5F
1497650424.26,3905,17.5,73496.3,-0.31,-1.75,-1.79,0,*51
1497650425.47,3906,17.5,73498.3,-0.31,-1.75,-1.79,0,*52
1497650426.7,3907,17.5,73488.0,-0.31,-1.75,-1.87,0,*52
1497650427.94,3908,17.5,73484.5,-0.33,-1.91,-1.99,0,*5A
1497650429.15,3909,17.5,73484.8,-0.31,-1.79,-1.79,0,*51
1497650430.35,3910,17.5,73468.0,-0.33,-1.71,-1.71,0,*5B
1497650431.56,3911,17.5,73466.5,-0.33,-1.47,-1.59,0,*55
1497650432.77,3912,17.5,73482.5,-0.33,-1.47,-1.59,0,*56
1497650434.01,3913,17.5,73486.3,-0.33,-1.47,-1.47,0,*58
1497650435.25,3914,17.5,73480.0,-0.33,-1.43,-1.47,0,*5B
1497650436.47,3915,17.5,73486.3,-0.33,-1.33,-1.47,0,*5D
1497650437.69,3916,17.5,73490.0,-0.31,-1.17,-1.21,0,*5A
1497650438.93,3917,17.5,73486.3,-0.33,-1.47,-1.47,0,*5C
1497650440.17,3918,17.5,73476.8,-0.31,-1.43,-1.51,0,*52
1497650441.41,3919,17.5,73480.3,-0.31,-1.39,-1.51,0,*5E
1497650442.65,3920,17.5,73474.8,-0.33,-2.07,-2.11,0,*5F
1497650443.91,3921,17.5,73470.3,-0.35,-1.99,-2.11,0,*5C
1497650445.17,3922,17.5,73462.3,-0.35,-1.95,-2.11,0,*53
1497650446.43,3923,17.5,73436.0,-0.35,-1.83,-1.91,0,*5E
1497650447.66,3924,17.5,73436.8,-0.37,-1.87,-1.95,0,*5B
1497650448.93,3925,17.5,73436.5,-0.35,-1.43,-1.47,0,*5F
1497650450.11,3926,17.5,73434.5,-0.37,-1.25,-1.25,0,*5A
1497650451.36,3927,17.5,73444.0,-0.31,-1.09,-1.09,0,*5D
1497650452.57,3928,17.5,73440.5,-0.35,-1.21,-1.25,0,*52
1497650453.84,3929,17.5,73430.5,-0.35,-1.43,-1.47,0,*53
1497650455.09,3930,17.5,73442.5,-0.35,-1.13,-1.13,0,*5F
1497650456.35,3931,17.5,73448.3,-0.35,-1.09,-1.13,0,*55
1497650457.58,3932,17.5,73466.0,-0.33,-0.97,-1.09,0,*6D
1497650458.81,3933,17.5,73468.8,-0.33,-0.97,-1.05,0,*60
1497650460.05,3934,17.5,73484.5,-0.33,-1.05,-1.09,0,*51
1497650461.29,3935,17.5,73486.3,-0.31,-0.93,-0.93,0,*5E
1497650462.52,3936,17.5,73492.8,-0.29,-0.85,-1.01,0,*69
1497650463.77,3937,17.5,73496.0,-0.31,-0.93,-1.01,0,*66
1497650465.02,3938,17.5,73504.5,-0.31,-0.89,-0.93,0,*58
1497650466.24,3939,17.5,73498.8,-0.31,-0.77,-0.89,0,*53
1497650467.5,3940,17.5,73512.0,-0.31,-1.01,-1.05,0,*58
1497650468.73,3941,17.5,73516.5,-0.29,-0.97,-0.97,0,*54
1497650469.97,3942,17.5,73520.8,-0.29,-1.01,-1.05,0,*53
1497650471.18,3943,17.5,73522.3,-0.29,-1.05,-1.25,0,*54
1497650472.41,3944,17.5,73532.0,-0.27,-1.13,-1.29,0,*56
1497650473.6,3945,17.5,73526.3,-0.29,-1.17,-1.29,0,*5D
1497650474.79,3946,17.5,73512.3,-0.29,-1.25,-1.25,0,*53
1497650475.98,3947,17.5,73532.0,-0.29,-1.29,-1.29,0,*52
1497650477.19,3948,17.5,73548.8,-0.29,-1.13,-1.17,0,*59
1497650478.43,3949,17.5,73532.8,-0.27,-1.17,-1.35,0,*52
1497650479.69,3950,17.5,73536.5,-0.31,-1.87,-1.91,0,*5A
1497650480.93,3951,17.5,73538.3,-0.29,-1.87,-1.99,0,*5A
1497650482.12,3952,17.5,73538.0,-0.29,-1.63,-1.71,0,*55
1497650483.32,3953,17.5,73534.3,-0.29,-1.71,-1.71,0,*57
1497650484.5,3954,17.5,73530.3,-0.33,-1.67,-1.79,0,*54
1497650485.74,3955,17.5,73530.5,-0.31,-1.43,-1.51,0,*5B
1497650486.98,3956,17.5,73526.8,-0.31,-1.33,-1.43,0,*5C
1497650488.22,3957,17.5,73538.0,-0.31,-1.43,-1.51,0,*59
1497650489.45,3958,17.5,73536.3,-0.31,-1.43,-1.51,0,*56
1497650490.69,3959,17.5,73536.0,-0.31,-1.29,-1.39,0,*55
1497650491.93,3960,17.5,73538.8,-0.33,-1.35,-1.43,0,*5D
1497650493.17,3961,17.5,73544.5,-0.33,-1.35,-1.43,0,*5C
1497650494.41,3962,17.5,73554.5,-0.33,-1.35,-1.47,0,*5B
1497650495.62,3963,17.5,73554.0,-0.33,-1.33,-1.35,0,*59
1497650496.81,3964,17.5,73544.5,-0.33,-1.21,-1.25,0,*5C
1497650498.0,3965,17.5,73540.8,-0.33,-1.21,-1.25,0,*5D
1497650499.25,3966,17.5,73542.5,-0.31,-1.01,-1.13,0,*5B
1497650500.49,3967,17.5,73540.3,-0.33,-1.05,-1.09,0,*57
1497650501.75,3968,17.5,73540.3,-0.31,-1.05,-1.09,0,*5A
1497650502.97,3969,17.5,73544.5,-0.31,-1.17,-1.29,0,*5A
1497650504.18,3970,17.5,73542.0,-0.31,-1.17,-1.29,0,*52
1497650505.44,3971,17.5,73538.3,-0.31,-1.09,-1.09,0,*5E
1497650506.65,3972,17.5,73538.8,-0.33,-1.09,-1.25,0,*51
1497650507.9,3973,17.5,73526.0,-0.31,-1.01,-1.09,0,*54
1497650509.16,3974,17.5,73526.0,-0.31,-0.93,-1.05,0,*65
1497650510.42,3975,17.5,73522.8,-0.31,-1.01,-1.05,0,*5E
1497650511.68,3976,17.5,73522.8,-0.31,-1.05,-1.05,0,*59
1497650512.9,3977,17.5,73526.3,-0.29,-1.17,-1.35,0,*51
1497650514.12,3978,17.5,73530.0,-0.29,-1.39,-1.51,0,*50
1497650515.3,3979,17.5,73528.0,-0.29,-1.51,-1.63,0,*5E
1497650516.51,3980,17.5,73526.8,-0.31,-1.63,-1.67,0,*54
1497650517.72,3981,17.5,73530.5,-0.31,-1.67,-1.75,0,*52
1497650518.93,3982,17.5,73530.0,-0.31,-1.67,-1.79,0,*5D
1497650520.14,3983,17.5,73524.0,-0.31,-1.51,-1.55,0,*57
1497650521.37,3984,17.5,73530.3,-0.33,-1.35,-1.47,0,*53
1497650522.56,3985,17.5,73528.8,-0.33,-1.55,-1.67,0,*56
1497650523.78,3986,17.5,73528.8,-0.33,-1.47,-1.71,0,*51
1497650525.02,3987,17.5,73526.3,-0.31,-1.33,-1.43,0,*50
1497650526.21,3988,17.5,73528.3,-0.33,-1.21,-1.33,0,*59
1497650527.44,3989,17.5,73516.0,-0.33,-1.13,-1.13,0,*5B
1497650528.67,3990,17.5,73516.0,-0.33,-0.85,-0.97,0,*50
1497650529.93,3991,17.5,73518.5,-0.31,-1.05,-1.09,0,*5C
1497650531.14,3992,17.5,73514.5,-0.33,-1.29,-1.39,0,*50
1497650532.38,3993,17.5,73512.5,-0.31,-1.39,-1.55,0,*58
1497650533.6,3994,17.5,73492.3,-0.29,-1.17,-1.35,0,*5C
1497650534.82,3995,17.5,73486.0,-0.33,-1.25,-1.35,0,*57
1497650536.05,3996,17.5,73482.8,-0.31,-1.09,-1.17,0,*58
1497650537.3,3997,17.5,73480.3,-0.31,-1.09,-1.09,0,*56
1497650538.56,3998,17.5,73486.8,-0.31,-1.05,-1.09,0,*55
1497650539.8,3999,17.5,73492.5,-0.29,-1.01,-1.13,0,*52
1497650541.06,4000,17.5,73486.8,-0.31,-1.05,-1.09,0,*5A
1497650542.29,4001,17.5,73488.5,-0.29,-1.01,-1.01,0,*5E
1497650543.53,4002,17.5,73494.5,-0.29,-1.01,-1.01,0,*5D
1497650544.77,4003,17.5,73492.5,-0.29,-1.01,-1.05,0,*58
1497650546.0,4004,17.5,73492.0,-0.29,-0.97,-1.05,0,*61
1497650547.24,4005,17.5,73488.5,-0.29,-1.01,-1.05,0,*5E
1497650548.48,4006,17.5,73488.0,-0.29,-1.01,-1.05,0,*5D
1497650549.72,4007,17.5,73490.3,-0.29,-1.01,-1.05,0,*5C
1497650550.95,4008,17.5,73484.5,-0.29,-0.89,-1.05,0,*62
1497650552.18,4009,17.5,73482.0,-0.29,-0.89,-1.01,0,*67
1497650553.43,4010,17.5,73482.3,-0.27,-0.89,-1.01,0,*61
1497650554.68,4011,17.5,73486.3,-0.27,-0.89,-1.01,0,*60
1497650555.93,4012,17.5,73488.5,-0.27,-0.89,-1.01,0,*63
1497650557.17,4013,17.5,73492.0,-0.29,-1.01,-1.01,0,*5D
1497650558.42,4014,17.5,73492.0,-0.27,-0.97,-1.01,0,*6A
1497650559.65,4015,17.5,73500.0,-0.29,-1.01,-1.13,0,*58
1497650560.9,4016,17.5,73504.0,-0.27,-0.97,-1.01,0,*68
1497650562.15,4017,17.5,73518.0,-0.27,-0.89,-0.97,0,*58
1497650563.4,4018,17.5,73522.3,-0.27,-0.97,-1.01,0,*66
1497650564.64,4019,17.5,73526.0,-0.29,-1.01,-1.01,0,*57
1497650565.87,4020,17.5,73530.8,-0.29,-0.89,-1.01,0,*6C
1497650567.1,4021,17.5,73532.0,-0.29,-0.89,-1.01,0,*6D
1497650568.34,4022,17.5,73530.8,-0.27,-0.89,-0.97,0,*5E
1497650569.59,4023,17.5,73530.3,-0.27,-0.89,-1.01,0,*61
1497650570.81,4024,17.5,73526.5,-0.25,-0.93,-0.93,0,*55
1497650572.03,4025,17.5,73534.0,-0.25,-0.93,-0.97,0,*50
1497650573.25,4026,17.5,73522.0,-0.25,-0.97,-0.93,0,*53
1497650574.47,4027,17.5,73516.8,-0.25,-1.21,-1.35,0,*53
1497650575.68,4028,17.5,73514.3,-0.25,-1.43,-1.55,0,*5E
1497650576.88,4029,17.5,73506.8,-0.27,-1.51,-1.63,0,*5B
1497650578.07,4030,17.5,73496.3,-0.29,-1.59,-1.63,0,*55
1497650579.28,4031,17.5,73498.3,-0.27,-1.63,-1.71,0,*50
1497650580.46,4032,17.5,73494.0,-0.29,-1.59,-1.71,0,*54
1497650581.64,4033,17.5,73512.3,-0.29,-1.51,-1.59,0,*57
1497650582.83,4034,17.5,73510.0,-0.29,-1.29,-1.29,0,*58
1497650584.04,4035,17.5,73508.0,-0.29,-1.13,-1.25,0,*5C
1497650585.31,4036,17.5,73508.5,-0.31,-1.39,-1.43,0,*5E
1497650586.52,4037,17.5,73508.3,-0.29,-1.29,-1.35,0,*56
1497650587.74,4038,17.5,73508.3,-0.29,-1.25,-1.35,0,*55
1497650588.95,4039,17.5,73512.8,-0.31,-1.29,-1.29,0,*5C
1497650590.2,4040,17.5,73512.3,-0.31,-1.09,-1.09,0,*52
1497650591.46,4041,17.5,73512.3,-0.31,-1.01,-1.05,0,*57
1497650592.72,4042,17.5,73518.0,-0.31,-1.01,-1.09,0,*58
1497650593.98,4043,17.5,73518.3,-0.31,-1.01,-1.09,0,*59
1497650595.24,4044,17.5,73514.3,-0.31,-1.05,-1.05,0,*56
1497650596.48,4045,17.5,73508.3,-0.29,-1.05,-1.01,0,*5A
1497650597.72,4046,17.5,73494.3,-0.29,-1.01,-1.13,0,*5E
1497650598.91,4047,17.5,73488.5,-0.29,-1.17,-1.17,0,*5C
1497650600.12,4048,17.5,73490.5,-0.29,-1.13,-1.17,0,*57
1497650601.31,4049,17.5,73492.0,-0.29,-1.17,-1.29,0,*5F
1497650602.55,4050,17.5,73502.3,-0.29,-1.05,-1.13,0,*5D
1497650603.79,4051,17.5,73502.5,-0.29,-1.05,-1.05,0,*5B
1497650605.03,4052,17.5,73506.5,-0.29,-0.97,-1.05,0,*62
1497650606.25,4053,17.5,73504.8,-0.29,-0.85,-0.97,0,*5A
1497650607.47,4054,17.5,73516.5,-0.29,-0.89,-0.97,0,*51
1497650608.71,4055,17.5,73518.0,-0.29,-1.01,-1.01,0,*5F
1497650609.94,4056,17.5,73514.8,-0.29,-1.05,-1.13,0,*5B
1497650611.19,4057,17.5,73516.3,-0.29,-1.05,-1.05,0,*5D
1497650612.43,4058,17.5,73518.0,-0.29,-1.05,-1.05,0,*52
1497650613.67,4059,17.5,73514.5,-0.29,-1.13,-1.05,0,*54
1497650614.88,4060,17.5,73512.3,-0.29,-1.05,-1.17,0,*5A
1497650616.14,4061,17.5,73510.5,-0.27,-1.05,-1.13,0,*51
1497650617.4,4062,17.5,73508.5,-0.27,-1.05,-1.05,0,*55
1497650618.64,4063,17.5,73504.3,-0.29,-0.97,-1.05,0,*60
1497650619.89,4064,17.5,73504.0,-0.27,-1.01,-1.01,0,*53
1497650621.13,4065,17.5,73498.5,-0.29,-1.01,-1.13,0,*5F
1497650622.38,4066,17.5,73502.5,-0.27,-1.01,-1.13,0,*52
1497650623.61,4067,17.5,73506.8,-0.29,-1.01,-1.13,0,*5D
1497650624.85,4068,17.5,73506.3,-0.29,-1.01,-1.05,0,*55
1497650626.09,4069,17.5,73504.8,-0.29,-1.01,-1.05,0,*54
1497650627.33,4070,17.5,73506.8,-0.29,-1.01,-1.05,0,*5C
1497650628.56,4071,17.5,73504.8,-0.29,-0.97,-1.01,0,*67
1497650629.81,4072,17.5,73502.0,-0.27,-0.97,-1.01,0,*6A
1497650631.06,4073,17.5,73506.8,-0.27,-0.89,-1.01,0,*64
1497650632.29,4074,17.5,73504.5,-0.29,-0.97,-1.01,0,*62
1497650633.54,4075,17.5,73502.0,-0.27,-0.89,-1.01,0,*62
1497650634.8,4076,17.5,73504.0,-0.27,-0.97,-1.01,0,*6E
1497650636.03,4077,17.5,73508.0,-0.29,-0.97,-1.01,0,*61
1497650637.28,4078,17.5,73506.3,-0.27,-1.01,-0.97,0,*60
1497650638.53,4079,17.5,73510.8,-0.27,-0.89,-1.01,0,*6E
1497650639.78,4080,17.5,73510.5,-0.27,-0.89,-1.01,0,*68
1497650641.04,4081,17.5,73506.5,-0.27,-1.01,-1.05,0,*5C
1497650642.27,4082,17.5,73508.5,-0.29,-1.01,-1.13,0,*56
1497650643.51,4083,17.5,73506.0,-0.27,-1.29,-1.39,0,*5B
1497650644.76,4084,17.5,73496.8,-0.27,-1.35,-1.47,0,*58
1497650645.98,4085,17.5,73492.3,-0.27,-1.71,-1.75,0,*58
1497650647.22,4086,17.5,73480.3,-0.29,-1.87,-1.99,0,*5E
1497650648.41,4087,17.5,73480.3,-0.29,-1.71,-1.75,0,*54
1497650649.63,4088,17.5,73480.0,-0.29,-1.29,-1.39,0,*5E
1497650650.87,4089,17.5,73482.5,-0.29,-1.39,-1.47,0,*57
1497650652.06,4090,17.5,73476.8,-0.29,-1.25,-1.29,0,*5A
1497650653.27,4091,17.5,73488.5,-0.29,-1.13,-1.25,0,*52
1497650654.47,4092,17.5,73488.0,-0.29,-1.13,-1.25,0,*51
1497650655.69,4093,17.5,73492.5,-0.29,-1.05,-1.17,0,*56
1497650656.9,4094,17.5,73496.0,-0.29,-1.13,-1.25,0,*57
1497650658.11,4095,17.5,73494.0,-0.29,-1.25,-1.35,0,*52
1497650659.35,4096,17.5,73488.3,-0.31,-1.33,-1.39,0,*53
1497650660.56,4097,17.5,73456.5,-0.31,-1.29,-1.33,0,*53
1497650661.78,4098,17.5,73450.8,-0.31,-1.17,-1.29,0,*5A
1497650663.05,4099,17.5,73450.5,-0.31,-1.39,-1.39,0,*56
1497650664.31,4100,17.5,73462.5,-0.31,-1.39,-1.47,0,*5E
1497650665.55,4101,17.5,73464.8,-0.31,-1.43,-1.51,0,*55
1497650666.76,4102,17.5,73462.8,-0.33,-1.47,-1.55,0,*54
1497650668.0,4103,17.5,73458.3,-0.31,-1.43,-1.51,0,*57
1497650669.24,4104,17.5,73464.0,-0.31,-1.39,-1.51,0,*5D
1497650670.48,4105,17.5,73464.3,-0.33,-1.35,-1.47,0,*55
1497650671.66,4106,17.5,73462.5,-0.33,-1.25,-1.33,0,*54
1497650672.92,4107,17.5,73470.3,-0.31,-1.09,-1.09,0,*50
1497650674.15,4108,17.5,73466.0,-0.33,-1.05,-1.13,0,*5A
1497650675.38,4109,17.5,73472.3,-0.33,-1.09,-1.13,0,*57
1497650676.59,4110,17.5,73476.8,-0.33,-1.13,-1.33,0,*56
1497650677.78,4111,17.5,73480.3,-0.33,-1.21,-1.33,0,*56
1497650679.01,4112,17.5,73486.0,-0.31,-1.09,-1.17,0,*5B
1497650680.23,4113,17.5,73486.3,-0.33,-1.13,-1.21,0,*56
1497650681.49,4114,17.5,73480.3,-0.31,-1.05,-1.05,0,*52
1497650682.76,4115,17.5,73482.8,-0.31,-1.01,-1.05,0,*57
1497650684.02,4116,17.5,73484.8,-0.31,-1.05,-1.09,0,*5C
1497650685.23,4117,17.5,73484.8,-0.31,-1.17,-1.29,0,*5C
1497650686.44,4118,17.5,73486.8,-0.31,-1.21,-1.33,0,*5D
1497650687.66,4119,17.5,73486.3,-0.33,-1.13,-1.21,0,*5C
1497650688.89,4120,17.5,73490.3,-0.33,-1.13,-1.13,0,*57
1497650690.12,4121,17.5,73498.5,-0.31,-1.09,-1.17,0,*5B
1497650691.39,4122,17.5,73498.3,-0.31,-1.05,-1.09,0,*5B
1497650692.62,4123,17.5,73498.0,-0.31,-1.05,-1.17,0,*55
1497650693.83,4124,17.5,73504.3,-0.33,-1.09,-1.33,0,*5A
1497650695.06,4125,17.5,73506.0,-0.31,-1.09,-1.29,0,*52
1497650696.28,4126,17.5,73510.0,-0.31,-1.21,-1.29,0,*5B
1497650697.49,4127,17.5,73514.8,-0.31,-1.21,-1.29,0,*5A
1497650698.7,4128,17.5,73510.3,-0.33,-1.13,-1.25,0,*5A
1497650699.94,4129,17.5,73512.0,-0.31,-1.09,-1.21,0,*56
1497650701.2,4130,17.5,73508.0,-0.31,-1.05,-1.09,0,*58
1497650702.43,4131,17.5,73514.8,-0.33,-1.01,-1.09,0,*5F
1497650703.67,4132,17.5,73518.0,-0.31,-1.05,-1.17,0,*55
1497650704.93,4133,17.5,73516.3,-0.31,-1.01,-1.09,0,*5F
1497650706.19,4134,17.5,73516.8,-0.31,-1.01,-1.01,0,*50
1497650707.45,4135,17.5,73514.3,-0.31,-1.01,-1.05,0,*55
1497650708.7,4136,17.5,73512.0,-0.31,-0.93,-1.01,0,*68
1497650709.95,4137,17.5,73518.0,-0.31,-0.93,-1.01,0,*69
1497650711.15,4138,17.5,73524.8,-0.29,-0.77,-0.97,0,*5B
1497650712.37,4139,17.5,73542.0,-0.29,-0.85,-0.85,0,*54
1497650713.62,4140,17.5,73534.0,-0.31,-0.89,-1.01,0,*62
1497650714.84,4141,17.5,73530.0,-0.31,-1.17,-1.29,0,*5F
1497650716.06,4142,17.5,73534.5,-0.29,-1.17,-1.35,0,*58
1497650717.27,4143,17.5,73536.3,-0.29,-1.05,-1.17,0,*5A
1497650718.52,4144,17.5,73532.0,-0.29,-1.05,-1.05,0,*5E
1497650719.75,4145,17.5,73526.3,-0.29,-0.97,-1.01,0,*61
1497650720.99,4146,17.5,73532.8,-0.29,-1.01,-1.05,0,*58
1497650722.2,4147,17.5,73532.3,-0.29,-1.13,-1.17,0,*59
1497650723.44,4148,17.5,73530.8,-0.29,-1.39,-1.39,0,*52
1497650724.62,4149,17.5,73532.3,-0.29,-1.51,-1.59,0,*5B
1497650725.81,4150,17.5,73526.0,-0.29,-1.59,-1.71,0,*51
1497650726.99,4151,17.5,73500.3,-0.29,-1.59,-1.63,0,*53
1497650728.18,4152,17.5,73498.8,-0.33,-1.21,-1.25,0,*56
1497650729.43,4153,17.5,73504.0,-0.31,-1.01,-1.09,0,*59
1497650730.69,4154,17.5,73508.0,-0.31,-1.05,-1.09,0,*5A
1497650731.96,4155,17.5,73514.3,-0.31,-1.01,-1.05,0,*53
1497650733.19,4156,17.5,73522.0,-0.29,-0.97,-1.01,0,*63
1497650734.42,4157,17.5,73506.0,-0.29,-0.89,-1.01,0,*6D
1497650735.66,4158,17.5,73524.3,-0.31,-1.33,-1.39,0,*50
1497650736.9,4159,17.5,73522.0,-0.31,-1.05,-1.17,0,*58
1497650738.13,4160,17.5,73526.8,-0.31,-1.09,-1.21,0,*5B
1497650739.37,4161,17.5,73530.0,-0.31,-1.29,-1.39,0,*51
1497650740.58,4162,17.5,73512.8,-0.31,-1.51,-1.67,0,*56
1497650741.82,4163,17.5,73514.5,-0.31,-1.75,-1.87,0,*5F
1497650743.06,4164,17.5,73518.3,-0.31,-2.31,-2.51,0,*53
1497650744.27,4165,17.5,73524.0,-0.33,-2.71,-2.83,0,*5B
1497650745.48,4166,17.5,73524.3,-0.37,-2.71,-2.79,0,*59
1497650746.71,4167,17.5,73518.8,-0.37,-2.47,-2.59,0,*5F
1497650747.89,4168,17.5,73510.8,-0.37,-2.27,-2.35,0,*5C
1497650749.13,4169,17.5,73504.5,-0.37,-1.83,-1.87,0,*5A
1497650750.4,4170,17.5,73488.8,-0.39,-1.39,-1.47,0,*51
1497650751.61,4171,17.5,73488.5,-0.37,-1.29,-1.47,0,*5F
1497650752.82,4172,17.5,73492.0,-0.39,-1.25,-1.29,0,*56
1497650754.04,4173,17.5,73498.8,-0.39,-1.17,-1.29,0,*56
1497650755.27,4174,17.5,73506.8,-0.39,-1.25,-1.35,0,*5D
1497650756.48,4175,17.5,73510.0,-0.37,-1.29,-1.47,0,*5B
1497650757.7,4176,17.5,73510.0,-0.37,-1.29,-1.35,0,*5D
1497650758.94,4177,17.5,73502.5,-0.37,-1.39,-1.47,0,*58
1497650760.18,4178,17.5,73506.5,-0.37,-1.39,-1.39,0,*5E
1497650761.41,4179,17.5,73514.0,-0.37,-1.35,-1.35,0,*5F
1497650762.6,4180,17.5,73506.3,-0.37,-1.17,-1.25,0,*58
1497650763.81,4181,17.5,73498.5,-0.37,-1.13,-1.17,0,*5C
1497650765.05,4182,17.5,73494.5,-0.35,-1.09,-1.21,0,*53
1497650766.26,4183,17.5,73492.8,-0.37,-1.13,-1.17,0,*5E
1497650767.49,4184,17.5,73492.8,-0.35,-1.09,-1.21,0,*55
1497650768.75,4185,17.5,73496.3,-0.35,-1.09,-1.13,0,*55
1497650769.99,4186,17.5,73496.3,-0.35,-1.21,-1.35,0,*58
1497650771.22,4187,17.5,73498.3,-0.37,-1.35,-1.39,0,*52
1497650772.44,4188,17.5,73500.8,-0.37,-1.29,-1.39,0,*50
1497650773.63,4189,17.5,73498.3,-0.37,-1.17,-1.17,0,*50
1497650774.84,4190,17.5,73494.3,-0.35,-1.21,-1.21,0,*5A
1497650776.03,4191,17.5,73496.0,-0.37,-1.17,-1.29,0,*54
1497650777.24,4192,17.5,73478.3,-0.35,-1.21,-1.33,0,*5B
1497650778.48,4193,17.5,73468.5,-0.35,-1.13,-1.21,0,*58
1497650779.74,4194,17.5,73478.5,-0.35,-1.09,-1.09,0,*5E
1497650780.92,4195,17.5,73482.8,-0.37,-1.17,-1.25,0,*5C
1497650782.18,4196,17.5,73484.0,-0.35,-0.97,-1.09,0,*6A
1497650783.43,4197,17.5,73474.5,-0.35,-0.97,-1.09,0,*6B
1497650784.69,4198,17.5,73478.3,-0.35,-1.09,-1.09,0,*52
1497650785.95,4199,17.5,73476.8,-0.35,-1.05,-1.13,0,*54
1497650787.21,4200,17.5,73480.0,-0.35,-1.05,-1.09,0,*5C
1497650788.47,4201,17.5,73506.8,-0.35,-0.97,-1.05,0,*6B
1497650789.73,4202,17.5,73514.8,-0.35,-1.05,-1.09,0,*5E
1497650790.97,4203,17.5,73498.3,-0.33,-1.05,-1.09,0,*59
1497650792.2,4204,17.5,73494.3,-0.33,-1.13,-1.13,0,*52
1497650793.46,4205,17.5,73506.5,-0.31,-1.01,-1.05,0,*55
1497650794.7,4206,17.5,73508.5,-0.33,-0.97,-1.05,0,*6A
1497650795.91,4207,17.5,73516.3,-0.33,-1.09,-1.21,0,*5B
1497650797.13,4208,17.5,73520.5,-0.31,-1.29,-1.29,0,*5C
1497650798.31,4209,17.5,73520.8,-0.33,-1.59,-1.67,0,*52
1497650799.5,4210,17.5,73524.3,-0.33,-1.59,-1.67,0,*5A
1497650800.73,4211,17.5,73530.5,-0.35,-1.35,-1.55,0,*56
1497650801.99,4212,17.5,73528.8,-0.35,-1.35,-1.47,0,*56
1497650803.23,4213,17.5,73522.5,-0.35,-1.47,-1.67,0,*50
1497650804.41,4214,17.5,73520.8,-0.37,-1.59,-1.63,0,*5E
1497650805.62,4215,17.5,73520.5,-0.37,-1.47,-1.51,0,*51
1497650806.86,4216,17.5,73524.3,-0.37,-1.35,-1.39,0,*59
1497650808.1,4217,17.5,73522.8,-0.35,-1.33,-1.43,0,*51
1497650809.34,4218,17.5,73526.8,-0.35,-1.33,-1.43,0,*5E
1497650810.58,4219,17.5,73522.8,-0.35,-1.25,-1.35,0,*59
1497650811.81,4220,17.5,73520.5,-0.35,-1.25,-1.35,0,*53
1497650813.07,4221,17.5,73504.3,-0.35,-1.35,-1.47,0,*56
1497650814.31,4222,17.5,73500.8,-0.35,-1.13,-1.25,0,*55
1497650815.56,4223,17.5,73500.0,-0.35,-1.09,-1.13,0,*5A
1497650816.81,4224,17.5,73494.0,-0.35,-1.09,-1.13,0,*5D
1497650818.02,4225,17.5,73480.3,-0.37,-1.13,-1.25,0,*50
1497650819.23,4226,17.5,73470.0,-0.35,-1.21,-1.25,0,*50
1497650820.48,4227,17.5,73464.3,-0.35,-1.13,-1.13,0,*55
1497650821.74,4228,17.5,73466.8,-0.35,-1.05,-1.13,0,*5D
1497650823.01,4229,17.5,73474.5,-0.35,-1.05,-1.09,0,*57
1497650824.26,4230,17.5,73470.5,-0.35,-1.09,-1.13,0,*58
1497650825.52,4231,17.5,73468.5,-0.35,-1.05,-1.09,0,*5E
1497650826.78,4232,17.5,73468.5,-0.35,-1.05,-1.09,0,*5D
1497650828.01,4233,17.5,73466.8,-0.33,-1.09,-1.09,0,*56
1497650829.26,4234,17.5,73468.5,-0.33,-1.05,-1.05,0,*51
1497650830.49,4235,17.5,73474.0,-0.33,-0.97,-1.09,0,*66
1497650831.72,4236,17.5,73474.8,-0.33,-0.97,-1.09,0,*65
1497650832.96,4237,17.5,73476.3,-0.33,-1.05,-1.09,0,*5E
1497650834.2,4238,17.5,73478.8,-0.33,-1.05,-1.05,0,*5D
1497650835.42,4239,17.5,73484.3,-0.33,-1.13,-1.21,0,*5D
1497650836.65,4240,17.5,73480.3,-0.33,-1.13,-1.13,0,*52
1497650837.88,4241,17.5,73482.0,-0.33,-1.09,-1.13,0,*58
1497650839.09,4242,17.5,73488.3,-0.33,-1.13,-1.25,0,*55
1497650840.34,4243,17.5,73488.0,-0.31,-1.09,-1.09,0,*53
1497650841.56,4244,17.5,73500.3,-0.33,-1.05,-1.21,0,*50
1497650842.79,4245,17.5,73498.0,-0.33,-1.09,-1.13,0,*5C
1497650844.05,4246,17.5,73500.5,-0.31,-1.05,-1.09,0,*5A
1497650845.29,4247,17.5,73496.5,-0.33,-1.05,-1.13,0,*52
1497650846.53,4248,17.5,73496.5,-0.33,-1.05,-1.05,0,*5A
1497650847.79,4249,17.5,73494.3,-0.31,-0.89,-1.05,0,*6C
1497650849.04,4250,17.5,73486.3,-0.31,-0.93,-1.05,0,*6F
1497650850.29,4251,17.5,73484.0,-0.31,-0.93,-1.05,0,*6E
1497650851.52,4252,17.5,73482.5,-0.33,-0.93,-1.05,0,*6F
1497650852.76,4253,17.5,73474.8,-0.33,-1.09,-1.09,0,*50
1497650854.02,4254,17.5,73484.5,-0.31,-1.01,-1.01,0,*55
1497650855.27,4255,17.5,73482.5,-0.31,-0.89,-1.01,0,*65
1497650856.51,4256,17.5,73490.8,-0.33,-1.05,-1.05,0,*55
1497650857.76,4257,17.5,73484.8,-0.31,-0.93,-1.05,0,*68
1497650859.01,4258,17.5,73496.8,-0.31,-0.93,-0.93,0,*59
1497650860.27,4259,17.5,73498.0,-0.31,-1.01,-1.05,0,*5C
1497650861.5,4260,17.5,73488.5,-0.29,-1.05,-1.13,0,*5C
1497650862.7,4261,17.5,73496.5,-0.29,-1.17,-1.29,0,*57
1497650863.94,4262,17.5,73498.8,-0.33,-1.39,-1.47,0,*5B
1497650865.15,4263,17.5,73488.3,-0.31,-1.63,-1.67,0,*55
1497650866.39,4264,17.5,73488.5,-0.31,-1.33,-1.43,0,*51
1497650867.6,4265,17.5,73486.0,-0.33,-1.25,-1.35,0,*54
1497650868.82,4266,17.5,73480.0,-0.33,-1.13,-1.21,0,*57
1497650870.05,4267,17.5,73474.5,-0.31,-1.09,-1.17,0,*5A
1497650871.24,4268,17.5,73464.8,-0.33,-1.21,-1.33,0,*5B
1497650872.46,4269,17.5,73468.5,-0.33,-1.13,-1.21,0,*58
1497650873.64,4270,17.5,73478.0,-0.33,-1.25,-1.33,0,*56
1497650874.88,4271,17.5,73478.5,-0.33,-1.35,-1.47,0,*55
1497650876.09,4272,17.5,73482.5,-0.33,-1.47,-1.59,0,*5C
1497650877.3,4273,17.5,73478.5,-0.33,-1.47,-1.55,0,*51
1497650878.51,4274,17.5,73474.5,-0.33,-1.47,-1.59,0,*5A
1497650879.72,4275,17.5,73462.5,-0.31,-1.63,-1.75,0,*51
1497650880.91,4276,17.5,73450.5,-0.33,-1.67,-1.71,0,*50
1497650882.15,4277,17.5,73450.8,-0.35,-1.47,-1.55,0,*53
1497650883.35,4278,17.5,73464.3,-0.35,-1.25,-1.33,0,*58
1497650884.62,4279,17.5,73470.0,-0.35,-1.35,-1.47,0,*5B
1497650885.81,4280,17.5,73456.8,-0.37,-1.71,-1.75,0,*5E
1497650887.05,4281,17.5,73462.8,-0.35,-1.71,-1.83,0,*54
1497650888.29,4282,17.5,73456.5,-0.35,-1.47,-1.67,0,*58
1497650889.5,4283,17.5,73466.5,-0.35,-1.79,-1.79,0,*5B
1497650890.68,4284,17.5,73458.3,-0.37,-1.75,-1.75,0,*5E
1497650891.89,4285,17.5,73452.0,-0.37,-1.39,-1.51,0,*51
1497650893.13,4286,17.5,73454.0,-0.35,-1.33,-1.35,0,*58
1497650894.33,4287,17.5,73456.0,-0.37,-1.17,-1.17,0,*5D
1497650895.56,4288,17.5,73462.8,-0.37,-1.05,-1.09,0,*5E
1497650896.77,4289,17.5,73464.5,-0.37,-1.13,-1.25,0,*56
1497650897.95,4290,17.5,73478.3,-0.37,-1.17,-1.25,0,*5A
1497650899.18,4291,17.5,73482.0,-0.37,-1.09,-1.09,0,*5A
1497650900.42,4292,17.5,73472.3,-0.37,-1.39,-1.47,0,*50
1497650901.66,4293,17.5,73484.5,-0.37,-1.35,-1.39,0,*54
1497650902.91,4294,17.5,73484.8,-0.35,-1.13,-1.13,0,*5D
1497650904.14,4295,17.5,73492.3,-0.37,-1.01,-1.13,0,*5D
1497650905.4,4296,17.5,73492.0,-0.35,-0.97,-1.05,0,*65
1497650906.63,4297,17.5,73492.3,-0.37,-0.97,-1.13,0,*61
1497650907.88,4298,17.5,73492.8,-0.35,-0.93,-1.09,0,*63
1497650909.14,4299,17.5,73490.3,-0.35,-0.97,-1.05,0,*6A
1497650910.39,4300,17.5,73486.8,-0.35,-0.97,-1.09,0,*67
1497650911.62,4301,17.5,73488.0,-0.33,-0.93,-1.05,0,*68
1497650912.85,4302,17.5,73484.0,-0.33,-0.93,-1.05,0,*6B
1497650914.1,4303,17.5,73484.3,-0.31,-0.93,-1.01,0,*6C
1497650915.34,4304,17.5,73478.8,-0.33,-0.97,-1.05,0,*69
1497650916.58,4305,17.5,73482.5,-0.31,-0.93,-0.93,0,*50
1497650917.83,4306,17.5,73484.0,-0.31,-0.93,-1.05,0,*6D
1497650919.08,4307,17.5,73486.0,-0.31,-0.93,-1.01,0,*68
1497650920.33,4308,17.5,73484.3,-0.31,-0.93,-1.01,0,*67
1497650921.56,4309,17.5,73484.3,-0.33,-0.93,-1.05,0,*60
1497650922.8,4310,17.5,73488.0,-0.33,-0.97,-1.05,0,*6C
1497650924.04,4311,17.5,73494.5,-0.31,-0.93,-1.01,0,*6F
1497650925.29,4312,17.5,73496.3,-0.31,-0.93,-1.01,0,*6C
1497650926.54,4313,17.5,73504.0,-0.31,-0.89,-0.89,0,*57
1497650927.79,4314,17.5,73500.3,-0.31,-0.89,-1.01,0,*61